owner,sensor,date,latitude,longitude,air_temperature,qcFlag 
DISL,ioos:station:DISL:PPTA:1,2017-09-01T00:00:00Z,30.2791,-87.5561,29.09,1111122 
DISL,ioos:station:DISL:PPTA:1,2017-09-01T00:30:00Z,30.2791,-87.5561,28.85,1111122 
DISL,ioos:station:DISL:PPTA:1,2017-09-01T01:00:00Z,30.2791,-87.5561,28.92,1111122 
DISL,ioos:station:DISL:PPTA:1,2017-09-01T01:30:00Z,30.2791,-87.5561,28.81,1111122 
DISL,ioos:station:DISL:PPTA:1,2017-09-01T02:00:00Z,30.2791,-87.5561,28.71,1111122 
DISL,ioos:station:DISL:PPTA:1,2017-09-01T02:30:00Z,30.2791,-87.5561,28.79,1111122 
DISL,ioos:station:DISL:PPTA:1,2017-09-01T03:00:00Z,30.2791,-87.5561,28.85,1111122 
DISL,ioos:station:DISL:PPTA:1,2017-09-01T03:30:00Z,30.2791,-87.5561,28.68,1111122 
DISL,ioos:station:DISL:PPTA:1,2017-09-01T04:00:00Z,30.2791,-87.5561,28.76,1111122 
DISL,ioos:station:DISL:PPTA:1,2017-09-01T04:30:00Z,30.2791,-87.5561,28.62,1111122 
DISL,ioos:station:DISL:PPTA:1,2017-09-01T05:00:00Z,30.2791,-87.5561,28.42,1111122 
DISL,ioos:station:DISL:PPTA:1,2017-09-01T05:30:00Z,30.2791,-87.5561,28.29,1111122 
DISL,ioos:station:DISL:PPTA:1,2017-09-01T06:00:00Z,30.2791,-87.5561,28.16,1111122 
DISL,ioos:station:DISL:PPTA:1,2017-09-01T06:30:00Z,30.2791,-87.5561,27.92,1111122 
DISL,ioos:station:DISL:PPTA:1,2017-09-01T07:00:00Z,30.2791,-87.5561,27.68,1111122 
DISL,ioos:station:DISL:PPTA:1,2017-09-01T07:30:00Z,30.2791,-87.5561,27.3,1111122 
DISL,ioos:station:DISL:PPTA:1,2017-09-01T08:00:00Z,30.2791,-87.5561,27.1,1111122 
DISL,ioos:station:DISL:PPTA:1,2017-09-01T08:30:00Z,30.2791,-87.5561,26.93,1111122 
DISL,ioos:station:DISL:PPTA:1,2017-09-01T09:00:00Z,30.2791,-87.5561,26.89,1111122 
DISL,ioos:station:DISL:PPTA:1,2017-09-01T09:30:00Z,30.2791,-87.5561,26.89,1111122 
DISL,ioos:station:DISL:PPTA:1,2017-09-01T10:00:00Z,30.2791,-87.5561,26.79,1111122 
DISL,ioos:station:DISL:PPTA:1,2017-09-01T10:30:00Z,30.2791,-87.5561,26.42,1111122 
DISL,ioos:station:DISL:PPTA:1,2017-09-01T11:00:00Z,30.2791,-87.5561,26.42,1111122 
DISL,ioos:station:DISL:PPTA:1,2017-09-01T11:30:00Z,30.2791,-87.5561,26.18,1111122 
DISL,ioos:station:DISL:PPTA:1,2017-09-01T12:00:00Z,30.2791,-87.5561,25.95,1111122 
DISL,ioos:station:DISL:PPTA:1,2017-09-01T12:30:00Z,30.2791,-87.5561,26.21,1111122 
DISL,ioos:station:DISL:PPTA:1,2017-09-01T13:00:00Z,30.2791,-87.5561,26.38,1111122 
DISL,ioos:station:DISL:PPTA:1,2017-09-01T13:30:00Z,30.2791,-87.5561,26.8,1111122 
DISL,ioos:station:DISL:PPTA:1,2017-09-01T14:00:00Z,30.2791,-87.5561,27.5,1111122 
DISL,ioos:station:DISL:PPTA:1,2017-09-01T14:30:00Z,30.2791,-87.5561,28.03,1111122 
DISL,ioos:station:DISL:PPTA:1,2017-09-01T15:00:00Z,30.2791,-87.5561,27.98,1111122 
DISL,ioos:station:DISL:PPTA:1,2017-09-01T15:30:00Z,30.2791,-87.5561,28.68,1111122 
DISL,ioos:station:DISL:PPTA:1,2017-09-01T16:00:00Z,30.2791,-87.5561,29.62,1111122 
DISL,ioos:station:DISL:PPTA:1,2017-09-01T16:30:00Z,30.2791,-87.5561,28.28,1111122 
DISL,ioos:station:DISL:PPTA:1,2017-09-01T17:00:00Z,30.2791,-87.5561,28.75,1111122 
DISL,ioos:station:DISL:PPTA:1,2017-09-01T17:30:00Z,30.2791,-87.5561,28.72,1111122 
DISL,ioos:station:DISL:PPTA:1,2017-09-01T18:00:00Z,30.2791,-87.5561,28.66,1111122 
DISL,ioos:station:DISL:PPTA:1,2017-09-01T18:30:00Z,30.2791,-87.5561,29.56,1111122 
DISL,ioos:station:DISL:PPTA:1,2017-09-01T19:00:00Z,30.2791,-87.5561,29.53,1111122 
DISL,ioos:station:DISL:PPTA:1,2017-09-01T19:30:00Z,30.2791,-87.5561,29.43,1111122 
DISL,ioos:station:DISL:PPTA:1,2017-09-01T20:00:00Z,30.2791,-87.5561,29.5,1111122 
DISL,ioos:station:DISL:PPTA:1,2017-09-01T20:30:00Z,30.2791,-87.5561,28.65,1111122 
DISL,ioos:station:DISL:PPTA:1,2017-09-01T21:00:00Z,30.2791,-87.5561,29.55,1111122 
DISL,ioos:station:DISL:PPTA:1,2017-09-01T21:30:00Z,30.2791,-87.5561,29.24,1111122 
DISL,ioos:station:DISL:PPTA:1,2017-09-01T22:00:00Z,30.2791,-87.5561,29.48,1111122 
DISL,ioos:station:DISL:PPTA:1,2017-09-01T22:30:00Z,30.2791,-87.5561,28.45,1111122 
DISL,ioos:station:DISL:PPTA:1,2017-09-01T23:00:00Z,30.2791,-87.5561,28.42,1111122 
DISL,ioos:station:DISL:PPTA:1,2017-09-01T23:30:00Z,30.2791,-87.5561,28.25,1111122 
DISL,ioos:station:DISL:PPTA:1,2017-09-02T00:00:00Z,30.2791,-87.5561,28.11,1111122 
DISL,ioos:station:DISL:PPTA:1,2017-09-02T00:30:00Z,30.2791,-87.5561,27.93,1111122 
DISL,ioos:station:DISL:PPTA:1,2017-09-02T01:00:00Z,30.2791,-87.5561,28.03,1111122 
DISL,ioos:station:DISL:PPTA:1,2017-09-02T01:30:00Z,30.2791,-87.5561,28.06,1111122 
DISL,ioos:station:DISL:PPTA:1,2017-09-02T02:00:00Z,30.2791,-87.5561,27.93,1111122 
DISL,ioos:station:DISL:PPTA:1,2017-09-02T02:30:00Z,30.2791,-87.5561,27.73,1111122 
DISL,ioos:station:DISL:PPTA:1,2017-09-02T03:00:00Z,30.2791,-87.5561,27.8,1111122 
DISL,ioos:station:DISL:PPTA:1,2017-09-02T03:30:00Z,30.2791,-87.5561,27.98,1111122 
DISL,ioos:station:DISL:PPTA:1,2017-09-02T04:00:00Z,30.2791,-87.5561,27.94,1111122 
DISL,ioos:station:DISL:PPTA:1,2017-09-02T04:30:00Z,30.2791,-87.5561,26.31,1111122 
DISL,ioos:station:DISL:PPTA:1,2017-09-02T05:00:00Z,30.2791,-87.5561,27.34,1111122 
DISL,ioos:station:DISL:PPTA:1,2017-09-02T05:30:00Z,30.2791,-87.5561,25.5,1111122 
DISL,ioos:station:DISL:PPTA:1,2017-09-02T06:00:00Z,30.2791,-87.5561,24.98,1111122 
DISL,ioos:station:DISL:PPTA:1,2017-09-02T06:30:00Z,30.2791,-87.5561,24.64,1111122 
DISL,ioos:station:DISL:PPTA:1,2017-09-02T07:00:00Z,30.2791,-87.5561,25.03,1111122 
DISL,ioos:station:DISL:PPTA:1,2017-09-02T07:30:00Z,30.2791,-87.5561,25.28,1111122 
DISL,ioos:station:DISL:PPTA:1,2017-09-02T08:00:00Z,30.2791,-87.5561,24.32,1111122 
DISL,ioos:station:DISL:PPTA:1,2017-09-02T08:30:00Z,30.2791,-87.5561,24.9,1111122 
DISL,ioos:station:DISL:PPTA:1,2017-09-02T09:00:00Z,30.2791,-87.5561,24.77,1111122 
DISL,ioos:station:DISL:PPTA:1,2017-09-02T09:30:00Z,30.2791,-87.5561,25.11,1111122 
DISL,ioos:station:DISL:PPTA:1,2017-09-02T10:00:00Z,30.2791,-87.5561,25.01,1111122 
DISL,ioos:station:DISL:PPTA:1,2017-09-02T10:30:00Z,30.2791,-87.5561,25.18,1111122 
DISL,ioos:station:DISL:PPTA:1,2017-09-02T11:00:00Z,30.2791,-87.5561,25.08,1111122 
DISL,ioos:station:DISL:PPTA:1,2017-09-02T11:30:00Z,30.2791,-87.5561,25.11,1111122 
DISL,ioos:station:DISL:PPTA:1,2017-09-02T12:00:00Z,30.2791,-87.5561,24.77,1111122 
DISL,ioos:station:DISL:PPTA:1,2017-09-02T12:30:00Z,30.2791,-87.5561,25.08,1111122 
DISL,ioos:station:DISL:PPTA:1,2017-09-02T13:00:00Z,30.2791,-87.5561,25.47,1111122 
DISL,ioos:station:DISL:PPTA:1,2017-09-02T13:30:00Z,30.2791,-87.5561,25.87,1111122 
DISL,ioos:station:DISL:PPTA:1,2017-09-02T14:00:00Z,30.2791,-87.5561,26.87,1111122 
DISL,ioos:station:DISL:PPTA:1,2017-09-02T14:30:00Z,30.2791,-87.5561,27.17,1111122 
DISL,ioos:station:DISL:PPTA:1,2017-09-02T15:00:00Z,30.2791,-87.5561,27.46,1111122 
DISL,ioos:station:DISL:PPTA:1,2017-09-02T15:30:00Z,30.2791,-87.5561,27.96,1111122 
DISL,ioos:station:DISL:PPTA:1,2017-09-02T16:00:00Z,30.2791,-87.5561,28.6,1111122 
DISL,ioos:station:DISL:PPTA:1,2017-09-02T16:30:00Z,30.2791,-87.5561,28.8,1111122 
DISL,ioos:station:DISL:PPTA:1,2017-09-02T17:00:00Z,30.2791,-87.5561,28.92,1111122 
DISL,ioos:station:DISL:PPTA:1,2017-09-02T17:30:00Z,30.2791,-87.5561,29.53,1111122 
DISL,ioos:station:DISL:PPTA:1,2017-09-02T18:00:00Z,30.2791,-87.5561,29.63,1111122 
DISL,ioos:station:DISL:PPTA:1,2017-09-02T18:30:00Z,30.2791,-87.5561,29.46,1111122 
DISL,ioos:station:DISL:PPTA:1,2017-09-02T19:00:00Z,30.2791,-87.5561,26.18,1111122 
DISL,ioos:station:DISL:PPTA:1,2017-09-02T19:30:00Z,30.2791,-87.5561,26.06,1111122 
DISL,ioos:station:DISL:PPTA:1,2017-09-02T20:00:00Z,30.2791,-87.5561,26.18,1111122 
DISL,ioos:station:DISL:PPTA:1,2017-09-02T20:30:00Z,30.2791,-87.5561,26.56,1111122 
DISL,ioos:station:DISL:PPTA:1,2017-09-02T21:00:00Z,30.2791,-87.5561,27.14,1111122 
DISL,ioos:station:DISL:PPTA:1,2017-09-02T21:30:00Z,30.2791,-87.5561,27.72,1111122 
DISL,ioos:station:DISL:PPTA:1,2017-09-02T22:00:00Z,30.2791,-87.5561,27.25,1111122 
DISL,ioos:station:DISL:PPTA:1,2017-09-02T22:30:00Z,30.2791,-87.5561,27.59,1111122 
DISL,ioos:station:DISL:PPTA:1,2017-09-02T23:00:00Z,30.2791,-87.5561,27.14,1111122 
DISL,ioos:station:DISL:PPTA:1,2017-09-02T23:30:00Z,30.2791,-87.5561,27.93,1111122 
DISL,ioos:station:DISL:PPTA:1,2017-09-03T00:00:00Z,30.2791,-87.5561,27.59,1111122 
DISL,ioos:station:DISL:PPTA:1,2017-09-03T00:30:00Z,30.2791,-87.5561,27.69,1111122 
DISL,ioos:station:DISL:PPTA:1,2017-09-03T01:00:00Z,30.2791,-87.5561,27.66,1111122 
DISL,ioos:station:DISL:PPTA:1,2017-09-03T01:30:00Z,30.2791,-87.5561,26.78,1111122 
DISL,ioos:station:DISL:PPTA:1,2017-09-03T02:00:00Z,30.2791,-87.5561,26.3,1111122 
DISL,ioos:station:DISL:PPTA:1,2017-09-03T02:30:00Z,30.2791,-87.5561,26.25,1111122 
DISL,ioos:station:DISL:PPTA:1,2017-09-03T03:00:00Z,30.2791,-87.5561,25.46,1111122 
DISL,ioos:station:DISL:PPTA:1,2017-09-03T03:30:00Z,30.2791,-87.5561,25.22,1111122 
DISL,ioos:station:DISL:PPTA:1,2017-09-03T04:00:00Z,30.2791,-87.5561,25.19,1111122 
DISL,ioos:station:DISL:PPTA:1,2017-09-03T04:30:00Z,30.2791,-87.5561,25.29,1111122 
DISL,ioos:station:DISL:PPTA:1,2017-09-03T05:00:00Z,30.2791,-87.5561,25.0,1111122 
DISL,ioos:station:DISL:PPTA:1,2017-09-03T05:30:00Z,30.2791,-87.5561,25.14,1111122 
DISL,ioos:station:DISL:PPTA:1,2017-09-03T06:00:00Z,30.2791,-87.5561,24.9,1111122 
DISL,ioos:station:DISL:PPTA:1,2017-09-03T06:30:00Z,30.2791,-87.5561,24.67,1111122 
DISL,ioos:station:DISL:PPTA:1,2017-09-03T07:00:00Z,30.2791,-87.5561,24.8,1111122 
DISL,ioos:station:DISL:PPTA:1,2017-09-03T07:30:00Z,30.2791,-87.5561,24.9,1111122 
DISL,ioos:station:DISL:PPTA:1,2017-09-03T08:00:00Z,30.2791,-87.5561,24.94,1111122 
DISL,ioos:station:DISL:PPTA:1,2017-09-03T08:30:00Z,30.2791,-87.5561,25.08,1111122 
DISL,ioos:station:DISL:PPTA:1,2017-09-03T09:00:00Z,30.2791,-87.5561,25.35,1111122 
DISL,ioos:station:DISL:PPTA:1,2017-09-03T09:30:00Z,30.2791,-87.5561,25.11,1111122 
DISL,ioos:station:DISL:PPTA:1,2017-09-03T10:00:00Z,30.2791,-87.5561,24.32,1111122 
DISL,ioos:station:DISL:PPTA:1,2017-09-03T10:30:00Z,30.2791,-87.5561,24.46,1111122 
DISL,ioos:station:DISL:PPTA:1,2017-09-03T11:00:00Z,30.2791,-87.5561,23.95,1111122 
DISL,ioos:station:DISL:PPTA:1,2017-09-03T11:30:00Z,30.2791,-87.5561,23.78,1111122 
DISL,ioos:station:DISL:PPTA:1,2017-09-03T12:00:00Z,30.2791,-87.5561,23.92,1111122 
DISL,ioos:station:DISL:PPTA:1,2017-09-03T12:30:00Z,30.2791,-87.5561,24.94,1111122 
DISL,ioos:station:DISL:PPTA:1,2017-09-03T13:00:00Z,30.2791,-87.5561,25.67,1111122 
DISL,ioos:station:DISL:PPTA:1,2017-09-03T13:30:00Z,30.2791,-87.5561,26.24,1111122 
DISL,ioos:station:DISL:PPTA:1,2017-09-03T14:00:00Z,30.2791,-87.5561,26.84,1111122 
DISL,ioos:station:DISL:PPTA:1,2017-09-03T14:30:00Z,30.2791,-87.5561,26.9,1111122 
DISL,ioos:station:DISL:PPTA:1,2017-09-03T15:00:00Z,30.2791,-87.5561,27.79,1111122 
DISL,ioos:station:DISL:PPTA:1,2017-09-03T15:30:00Z,30.2791,-87.5561,29.34,1111122 
DISL,ioos:station:DISL:PPTA:1,2017-09-03T16:00:00Z,30.2791,-87.5561,28.87,1111122 
DISL,ioos:station:DISL:PPTA:1,2017-09-03T16:30:00Z,30.2791,-87.5561,30.15,1111122 
DISL,ioos:station:DISL:PPTA:1,2017-09-03T17:00:00Z,30.2791,-87.5561,27.64,1111122 
DISL,ioos:station:DISL:PPTA:1,2017-09-03T17:30:00Z,30.2791,-87.5561,29.8,1111122 
DISL,ioos:station:DISL:PPTA:1,2017-09-03T18:00:00Z,30.2791,-87.5561,29.87,1111122 
DISL,ioos:station:DISL:PPTA:1,2017-09-03T18:30:00Z,30.2791,-87.5561,29.73,1111122 
DISL,ioos:station:DISL:PPTA:1,2017-09-03T19:00:00Z,30.2791,-87.5561,29.73,1111122 
DISL,ioos:station:DISL:PPTA:1,2017-09-03T19:30:00Z,30.2791,-87.5561,30.11,1111122 
DISL,ioos:station:DISL:PPTA:1,2017-09-03T20:00:00Z,30.2791,-87.5561,30.59,1111122 
DISL,ioos:station:DISL:PPTA:1,2017-09-03T20:30:00Z,30.2791,-87.5561,30.6,1111122 
DISL,ioos:station:DISL:PPTA:1,2017-09-03T21:00:00Z,30.2791,-87.5561,31.12,1111122 
DISL,ioos:station:DISL:PPTA:1,2017-09-03T21:30:00Z,30.2791,-87.5561,30.84,1111122 
DISL,ioos:station:DISL:PPTA:1,2017-09-03T22:00:00Z,30.2791,-87.5561,29.62,1111122 
DISL,ioos:station:DISL:PPTA:1,2017-09-03T22:30:00Z,30.2791,-87.5561,29.83,1111122 
DISL,ioos:station:DISL:PPTA:1,2017-09-03T23:00:00Z,30.2791,-87.5561,30.02,1111122 
DISL,ioos:station:DISL:PPTA:1,2017-09-03T23:30:00Z,30.2791,-87.5561,29.54,1111122 
DISL,ioos:station:DISL:PPTA:1,2017-09-04T00:00:00Z,30.2791,-87.5561,29.37,1111122 
DISL,ioos:station:DISL:PPTA:1,2017-09-04T00:30:00Z,30.2791,-87.5561,29.17,1111122 
DISL,ioos:station:DISL:PPTA:1,2017-09-04T01:00:00Z,30.2791,-87.5561,29.18,1111122 
DISL,ioos:station:DISL:PPTA:1,2017-09-04T01:30:00Z,30.2791,-87.5561,28.0,1111122 
DISL,ioos:station:DISL:PPTA:1,2017-09-04T02:00:00Z,30.2791,-87.5561,27.62,1111122 
DISL,ioos:station:DISL:PPTA:1,2017-09-04T02:30:00Z,30.2791,-87.5561,27.45,1111122 
DISL,ioos:station:DISL:PPTA:1,2017-09-04T03:00:00Z,30.2791,-87.5561,27.25,1111122 
DISL,ioos:station:DISL:PPTA:1,2017-09-04T03:30:00Z,30.2791,-87.5561,27.79,1111122 
DISL,ioos:station:DISL:PPTA:1,2017-09-04T04:00:00Z,30.2791,-87.5561,27.48,1111122 
DISL,ioos:station:DISL:PPTA:1,2017-09-04T04:30:00Z,30.2791,-87.5561,26.8,1111122 
DISL,ioos:station:DISL:PPTA:1,2017-09-04T05:00:00Z,30.2791,-87.5561,26.44,1111122 
DISL,ioos:station:DISL:PPTA:1,2017-09-04T05:30:00Z,30.2791,-87.5561,26.35,1111122 
DISL,ioos:station:DISL:PPTA:1,2017-09-04T06:00:00Z,30.2791,-87.5561,26.66,1111122 
DISL,ioos:station:DISL:PPTA:1,2017-09-04T06:30:00Z,30.2791,-87.5561,26.62,1111122 
DISL,ioos:station:DISL:PPTA:1,2017-09-04T07:00:00Z,30.2791,-87.5561,25.77,1111122 
DISL,ioos:station:DISL:PPTA:1,2017-09-04T07:30:00Z,30.2791,-87.5561,25.7,1111122 
DISL,ioos:station:DISL:PPTA:1,2017-09-04T08:00:00Z,30.2791,-87.5561,25.46,1111122 
DISL,ioos:station:DISL:PPTA:1,2017-09-04T08:30:00Z,30.2791,-87.5561,25.02,1111122 
DISL,ioos:station:DISL:PPTA:1,2017-09-04T09:00:00Z,30.2791,-87.5561,24.87,1111122 
DISL,ioos:station:DISL:PPTA:1,2017-09-04T09:30:00Z,30.2791,-87.5561,25.04,1111122 
DISL,ioos:station:DISL:PPTA:1,2017-09-04T10:00:00Z,30.2791,-87.5561,25.07,1111122 
DISL,ioos:station:DISL:PPTA:1,2017-09-04T10:30:00Z,30.2791,-87.5561,25.01,1111122 
DISL,ioos:station:DISL:PPTA:1,2017-09-04T11:00:00Z,30.2791,-87.5561,24.94,1111122 
DISL,ioos:station:DISL:PPTA:1,2017-09-04T11:30:00Z,30.2791,-87.5561,24.63,1111122 
DISL,ioos:station:DISL:PPTA:1,2017-09-04T12:00:00Z,30.2791,-87.5561,25.08,1111122 
DISL,ioos:station:DISL:PPTA:1,2017-09-04T12:30:00Z,30.2791,-87.5561,25.31,1111122 
DISL,ioos:station:DISL:PPTA:1,2017-09-04T13:00:00Z,30.2791,-87.5561,25.94,1111122 
DISL,ioos:station:DISL:PPTA:1,2017-09-04T13:30:00Z,30.2791,-87.5561,26.47,1111122 
DISL,ioos:station:DISL:PPTA:1,2017-09-04T14:00:00Z,30.2791,-87.5561,27.04,1111122 
DISL,ioos:station:DISL:PPTA:1,2017-09-04T14:30:00Z,30.2791,-87.5561,27.91,1111122 
DISL,ioos:station:DISL:PPTA:1,2017-09-04T15:00:00Z,30.2791,-87.5561,27.62,1111122 
DISL,ioos:station:DISL:PPTA:1,2017-09-04T15:30:00Z,30.2791,-87.5561,28.26,1111122 
DISL,ioos:station:DISL:PPTA:1,2017-09-04T16:00:00Z,30.2791,-87.5561,29.04,1111122 
DISL,ioos:station:DISL:PPTA:1,2017-09-04T16:30:00Z,30.2791,-87.5561,29.6,1111122 
DISL,ioos:station:DISL:PPTA:1,2017-09-04T17:00:00Z,30.2791,-87.5561,30.11,1111122 
DISL,ioos:station:DISL:PPTA:1,2017-09-04T17:30:00Z,30.2791,-87.5561,30.47,1111122 
DISL,ioos:station:DISL:PPTA:1,2017-09-04T18:00:00Z,30.2791,-87.5561,29.72,1111122 
DISL,ioos:station:DISL:PPTA:1,2017-09-04T18:30:00Z,30.2791,-87.5561,30.26,1111122 
DISL,ioos:station:DISL:PPTA:1,2017-09-04T19:00:00Z,30.2791,-87.5561,30.1,1111122 
DISL,ioos:station:DISL:PPTA:1,2017-09-04T19:30:00Z,30.2791,-87.5561,30.14,1111122 
DISL,ioos:station:DISL:PPTA:1,2017-09-04T20:00:00Z,30.2791,-87.5561,30.38,1111122 
DISL,ioos:station:DISL:PPTA:1,2017-09-04T20:30:00Z,30.2791,-87.5561,30.98,1111122 
DISL,ioos:station:DISL:PPTA:1,2017-09-04T21:00:00Z,30.2791,-87.5561,30.3,1111122 
DISL,ioos:station:DISL:PPTA:1,2017-09-04T21:30:00Z,30.2791,-87.5561,30.57,1111122 
DISL,ioos:station:DISL:PPTA:1,2017-09-04T22:00:00Z,30.2791,-87.5561,30.71,1111122 
DISL,ioos:station:DISL:PPTA:1,2017-09-04T22:30:00Z,30.2791,-87.5561,30.25,1111122 
DISL,ioos:station:DISL:PPTA:1,2017-09-04T23:00:00Z,30.2791,-87.5561,30.49,1111122 
DISL,ioos:station:DISL:PPTA:1,2017-09-04T23:30:00Z,30.2791,-87.5561,29.54,1111122 
DISL,ioos:station:DISL:PPTA:1,2017-09-05T00:00:00Z,30.2791,-87.5561,28.76,1111122 
DISL,ioos:station:DISL:PPTA:1,2017-09-05T00:30:00Z,30.2791,-87.5561,28.35,1111122 
DISL,ioos:station:DISL:PPTA:1,2017-09-05T01:00:00Z,30.2791,-87.5561,28.16,1111122 
DISL,ioos:station:DISL:PPTA:1,2017-09-05T01:30:00Z,30.2791,-87.5561,28.34,1111122 
DISL,ioos:station:DISL:PPTA:1,2017-09-05T02:00:00Z,30.2791,-87.5561,28.23,1111122 
DISL,ioos:station:DISL:PPTA:1,2017-09-05T02:30:00Z,30.2791,-87.5561,28.1,1111122 
DISL,ioos:station:DISL:PPTA:1,2017-09-05T03:00:00Z,30.2791,-87.5561,28.07,1111122 
DISL,ioos:station:DISL:PPTA:1,2017-09-05T03:30:00Z,30.2791,-87.5561,28.11,1111122 
DISL,ioos:station:DISL:PPTA:1,2017-09-05T04:00:00Z,30.2791,-87.5561,28.05,1111122 
DISL,ioos:station:DISL:PPTA:1,2017-09-05T04:30:00Z,30.2791,-87.5561,27.92,1111122 
DISL,ioos:station:DISL:PPTA:1,2017-09-05T05:00:00Z,30.2791,-87.5561,27.85,1111122 
DISL,ioos:station:DISL:PPTA:1,2017-09-05T05:30:00Z,30.2791,-87.5561,27.1,1111122 
DISL,ioos:station:DISL:PPTA:1,2017-09-05T06:00:00Z,30.2791,-87.5561,26.48,1111122 
DISL,ioos:station:DISL:PPTA:1,2017-09-05T06:30:00Z,30.2791,-87.5561,26.14,1111122 
DISL,ioos:station:DISL:PPTA:1,2017-09-05T07:00:00Z,30.2791,-87.5561,25.87,1111122 
DISL,ioos:station:DISL:PPTA:1,2017-09-05T07:30:00Z,30.2791,-87.5561,26.01,1111122 
DISL,ioos:station:DISL:PPTA:1,2017-09-05T08:00:00Z,30.2791,-87.5561,25.94,1111122 
DISL,ioos:station:DISL:PPTA:1,2017-09-05T08:30:00Z,30.2791,-87.5561,26.02,1111122 
DISL,ioos:station:DISL:PPTA:1,2017-09-05T09:00:00Z,30.2791,-87.5561,25.61,1111122 
DISL,ioos:station:DISL:PPTA:1,2017-09-05T09:30:00Z,30.2791,-87.5561,25.51,1111122 
DISL,ioos:station:DISL:PPTA:1,2017-09-05T10:00:00Z,30.2791,-87.5561,25.04,1111122 
DISL,ioos:station:DISL:PPTA:1,2017-09-05T10:30:00Z,30.2791,-87.5561,25.04,1111122 
DISL,ioos:station:DISL:PPTA:1,2017-09-05T11:00:00Z,30.2791,-87.5561,24.94,1111122 
DISL,ioos:station:DISL:PPTA:1,2017-09-05T11:30:00Z,30.2791,-87.5561,25.14,1111122 
DISL,ioos:station:DISL:PPTA:1,2017-09-05T12:00:00Z,30.2791,-87.5561,25.14,1111122 
DISL,ioos:station:DISL:PPTA:1,2017-09-05T12:30:00Z,30.2791,-87.5561,25.18,1111122 
DISL,ioos:station:DISL:PPTA:1,2017-09-05T13:00:00Z,30.2791,-87.5561,25.54,1111122 
DISL,ioos:station:DISL:PPTA:1,2017-09-05T13:30:00Z,30.2791,-87.5561,25.53,1111122 
DISL,ioos:station:DISL:PPTA:1,2017-09-05T14:00:00Z,30.2791,-87.5561,25.73,1111122 
DISL,ioos:station:DISL:PPTA:1,2017-09-05T14:30:00Z,30.2791,-87.5561,26.28,1111122 
DISL,ioos:station:DISL:PPTA:1,2017-09-05T15:00:00Z,30.2791,-87.5561,27.1,1111122 
DISL,ioos:station:DISL:PPTA:1,2017-09-05T15:30:00Z,30.2791,-87.5561,27.28,1111122 
DISL,ioos:station:DISL:PPTA:1,2017-09-05T16:00:00Z,30.2791,-87.5561,28.71,1111122 
DISL,ioos:station:DISL:PPTA:1,2017-09-05T16:30:00Z,30.2791,-87.5561,29.3,1111122 
DISL,ioos:station:DISL:PPTA:1,2017-09-05T17:00:00Z,30.2791,-87.5561,29.45,1111122 
DISL,ioos:station:DISL:PPTA:1,2017-09-05T17:30:00Z,30.2791,-87.5561,29.14,1111122 
DISL,ioos:station:DISL:PPTA:1,2017-09-05T18:00:00Z,30.2791,-87.5561,29.45,1111122 
DISL,ioos:station:DISL:PPTA:1,2017-09-05T18:30:00Z,30.2791,-87.5561,29.93,1111122 
DISL,ioos:station:DISL:PPTA:1,2017-09-05T19:00:00Z,30.2791,-87.5561,30.16,1111122 
DISL,ioos:station:DISL:PPTA:1,2017-09-05T19:30:00Z,30.2791,-87.5561,30.3,1111122 
DISL,ioos:station:DISL:PPTA:1,2017-09-05T20:00:00Z,30.2791,-87.5561,30.37,1111122 
DISL,ioos:station:DISL:PPTA:1,2017-09-05T20:30:00Z,30.2791,-87.5561,30.84,1111122 
DISL,ioos:station:DISL:PPTA:1,2017-09-05T21:00:00Z,30.2791,-87.5561,30.44,1111122 
DISL,ioos:station:DISL:PPTA:1,2017-09-05T21:30:00Z,30.2791,-87.5561,30.98,1111122 
DISL,ioos:station:DISL:PPTA:1,2017-09-05T22:00:00Z,30.2791,-87.5561,29.66,1111122 
DISL,ioos:station:DISL:PPTA:1,2017-09-05T22:30:00Z,30.2791,-87.5561,29.3,1111122 
DISL,ioos:station:DISL:PPTA:1,2017-09-05T23:00:00Z,30.2791,-87.5561,29.03,1111122 
DISL,ioos:station:DISL:PPTA:1,2017-09-05T23:30:00Z,30.2791,-87.5561,28.62,1111122 
DISL,ioos:station:DISL:PPTA:1,2017-09-06T00:00:00Z,30.2791,-87.5561,28.42,1111122 
DISL,ioos:station:DISL:PPTA:1,2017-09-06T00:30:00Z,30.2791,-87.5561,28.34,1111122 
DISL,ioos:station:DISL:PPTA:1,2017-09-06T01:00:00Z,30.2791,-87.5561,28.4,1111122 
DISL,ioos:station:DISL:PPTA:1,2017-09-06T01:30:00Z,30.2791,-87.5561,28.34,1111122 
DISL,ioos:station:DISL:PPTA:1,2017-09-06T02:00:00Z,30.2791,-87.5561,28.2,1111122 
DISL,ioos:station:DISL:PPTA:1,2017-09-06T02:30:00Z,30.2791,-87.5561,27.93,1111122 
DISL,ioos:station:DISL:PPTA:1,2017-09-06T03:00:00Z,30.2791,-87.5561,27.9,1111122 
DISL,ioos:station:DISL:PPTA:1,2017-09-06T03:30:00Z,30.2791,-87.5561,27.77,1111122 
DISL,ioos:station:DISL:PPTA:1,2017-09-06T04:00:00Z,30.2791,-87.5561,28.25,1111122 
DISL,ioos:station:DISL:PPTA:1,2017-09-06T04:30:00Z,30.2791,-87.5561,27.88,1111122 
DISL,ioos:station:DISL:PPTA:1,2017-09-06T05:00:00Z,30.2791,-87.5561,27.61,1111122 
DISL,ioos:station:DISL:PPTA:1,2017-09-06T05:30:00Z,30.2791,-87.5561,28.05,1111122 
DISL,ioos:station:DISL:PPTA:1,2017-09-06T06:00:00Z,30.2791,-87.5561,27.78,1111122 
DISL,ioos:station:DISL:PPTA:1,2017-09-06T06:30:00Z,30.2791,-87.5561,27.12,1111122 
DISL,ioos:station:DISL:PPTA:1,2017-09-06T07:00:00Z,30.2791,-87.5561,24.84,1111122 
DISL,ioos:station:DISL:PPTA:1,2017-09-06T07:30:00Z,30.2791,-87.5561,23.76,1111122 
DISL,ioos:station:DISL:PPTA:1,2017-09-06T08:00:00Z,30.2791,-87.5561,23.16,1111122 
DISL,ioos:station:DISL:PPTA:1,2017-09-06T08:30:00Z,30.2791,-87.5561,23.37,1111122 
DISL,ioos:station:DISL:PPTA:1,2017-09-06T09:00:00Z,30.2791,-87.5561,25.01,1111122 
DISL,ioos:station:DISL:PPTA:1,2017-09-06T09:30:00Z,30.2791,-87.5561,24.5,1111122 
DISL,ioos:station:DISL:PPTA:1,2017-09-06T10:00:00Z,30.2791,-87.5561,23.57,1111122 
DISL,ioos:station:DISL:PPTA:1,2017-09-06T10:30:00Z,30.2791,-87.5561,23.37,1111122 
DISL,ioos:station:DISL:PPTA:1,2017-09-06T11:00:00Z,30.2791,-87.5561,22.99,1111122 
DISL,ioos:station:DISL:PPTA:1,2017-09-06T11:30:00Z,30.2791,-87.5561,22.59,1111122 
DISL,ioos:station:DISL:PPTA:1,2017-09-06T12:00:00Z,30.2791,-87.5561,22.11,1111122 
DISL,ioos:station:DISL:PPTA:1,2017-09-06T12:30:00Z,30.2791,-87.5561,21.95,1111122 
DISL,ioos:station:DISL:PPTA:1,2017-09-06T13:00:00Z,30.2791,-87.5561,22.15,1111122 
DISL,ioos:station:DISL:PPTA:1,2017-09-06T13:30:00Z,30.2791,-87.5561,22.39,1111122 
DISL,ioos:station:DISL:PPTA:1,2017-09-06T14:00:00Z,30.2791,-87.5561,22.5,1111122 
DISL,ioos:station:DISL:PPTA:1,2017-09-06T14:30:00Z,30.2791,-87.5561,22.86,1111122 
DISL,ioos:station:DISL:PPTA:1,2017-09-06T15:00:00Z,30.2791,-87.5561,22.96,1111122 
DISL,ioos:station:DISL:PPTA:1,2017-09-06T15:30:00Z,30.2791,-87.5561,23.37,1111122 
DISL,ioos:station:DISL:PPTA:1,2017-09-06T16:00:00Z,30.2791,-87.5561,24.66,1111122 
DISL,ioos:station:DISL:PPTA:1,2017-09-06T16:30:00Z,30.2791,-87.5561,25.36,1111122 
DISL,ioos:station:DISL:PPTA:1,2017-09-06T17:00:00Z,30.2791,-87.5561,25.89,1111122 
DISL,ioos:station:DISL:PPTA:1,2017-09-06T17:30:00Z,30.2791,-87.5561,26.29,1111122 
DISL,ioos:station:DISL:PPTA:1,2017-09-06T18:00:00Z,30.2791,-87.5561,25.78,1111122 
DISL,ioos:station:DISL:PPTA:1,2017-09-06T18:30:00Z,30.2791,-87.5561,26.22,1111122 
DISL,ioos:station:DISL:PPTA:1,2017-09-06T19:00:00Z,30.2791,-87.5561,26.16,1111122 
DISL,ioos:station:DISL:PPTA:1,2017-09-06T19:30:00Z,30.2791,-87.5561,26.94,1111122 
DISL,ioos:station:DISL:PPTA:1,2017-09-06T20:00:00Z,30.2791,-87.5561,27.21,1111122 
DISL,ioos:station:DISL:PPTA:1,2017-09-06T20:30:00Z,30.2791,-87.5561,27.18,1111122 
DISL,ioos:station:DISL:PPTA:1,2017-09-06T21:00:00Z,30.2791,-87.5561,26.6,1111122 
DISL,ioos:station:DISL:PPTA:1,2017-09-06T21:30:00Z,30.2791,-87.5561,26.39,1111122 
DISL,ioos:station:DISL:PPTA:1,2017-09-06T22:00:00Z,30.2791,-87.5561,26.2,1111122 
DISL,ioos:station:DISL:PPTA:1,2017-09-06T22:30:00Z,30.2791,-87.5561,25.6,1111122 
DISL,ioos:station:DISL:PPTA:1,2017-09-06T23:00:00Z,30.2791,-87.5561,24.81,1111122 
DISL,ioos:station:DISL:PPTA:1,2017-09-06T23:30:00Z,30.2791,-87.5561,24.44,1111122 